TimeCDT,TemperatureF,Dew PointF,Humidity,Sea Level PressureIn,VisibilityMPH,Wind Direction,Wind SpeedMPH,Gust SpeedMPH,PrecipitationIn,Events,Conditions,WindDirDegrees,DateUTC
12:15 AM,53.6,35.6,51,30.05,10.0,West,10.4,-,N/A,,Mostly Cloudy,280,2012-10-14 05:15:00
12:35 AM,53.6,35.6,51,30.05,10.0,West,10.4,17.3,N/A,,Scattered Clouds,280,2012-10-14 05:35:00
12:55 AM,53.6,37.4,54,30.04,10.0,West,13.8,18.4,N/A,,Partly Cloudy,280,2012-10-14 05:55:00
1:15 AM,53.6,37.4,54,30.04,10.0,West,10.4,-,N/A,,Partly Cloudy,270,2012-10-14 06:15:00
1:35 AM,53.6,37.4,54,30.05,10.0,West,12.7,-,N/A,,Partly Cloudy,270,2012-10-14 06:35:00
1:55 AM,53.6,37.4,54,30.05,10.0,West,12.7,17.3,N/A,,Clear,280,2012-10-14 06:55:00
2:15 AM,53.6,37.4,54,30.05,10.0,West,12.7,-,N/A,,Clear,280,2012-10-14 07:15:00
2:35 AM,53.6,37.4,54,30.05,10.0,West,13.8,18.4,N/A,,Clear,280,2012-10-14 07:35:00
2:55 AM,53.6,37.4,54,30.05,10.0,West,13.8,19.6,N/A,,Clear,270,2012-10-14 07:55:00
3:15 AM,53.6,37.4,54,30.05,10.0,West,13.8,20.7,N/A,,Clear,270,2012-10-14 08:15:00
3:55 AM,53.6,37.4,54,30.06,10.0,West,17.3,21.9,N/A,,Mostly Cloudy,280,2012-10-14 08:55:00
4:15 AM,53.6,37.4,54,30.07,10.0,West,15.0,20.7,N/A,,Partly Cloudy,280,2012-10-14 09:15:00
4:35 AM,53.6,37.4,54,30.07,10.0,West,13.8,21.9,N/A,,Partly Cloudy,280,2012-10-14 09:35:00
4:55 AM,51.8,37.4,58,30.08,10.0,West,12.7,19.6,N/A,,Partly Cloudy,280,2012-10-14 09:55:00
5:15 AM,51.8,37.4,58,30.08,10.0,West,12.7,-,N/A,,Scattered Clouds,280,2012-10-14 10:15:00
5:35 AM,53.6,37.4,54,30.08,10.0,West,11.5,18.4,N/A,,Overcast,270,2012-10-14 10:35:00
5:55 AM,51.8,37.4,58,30.08,10.0,West,12.7,-,N/A,,Scattered Clouds,270,2012-10-14 10:55:00
6:15 AM,51.8,37.4,58,30.09,10.0,West,10.4,17.3,N/A,,Clear,280,2012-10-14 11:15:00
6:35 AM,51.8,37.4,58,30.10,10.0,West,13.8,18.4,N/A,,Mostly Cloudy,280,2012-10-14 11:35:00
6:55 AM,53.6,37.4,54,30.10,10.0,West,15.0,20.7,N/A,,Overcast,280,2012-10-14 11:55:00
7:15 AM,53.6,35.6,51,30.11,10.0,WNW,16.1,23.0,N/A,,Overcast,290,2012-10-14 12:15:00
7:35 AM,53.6,35.6,51,30.11,10.0,West,13.8,21.9,N/A,,Overcast,280,2012-10-14 12:35:00
7:55 AM,51.8,35.6,54,30.11,10.0,West,13.8,-,N/A,,Scattered Clouds,280,2012-10-14 12:55:00
8:15 AM,50.0,35.6,58,30.12,10.0,West,12.7,17.3,N/A,,Clear,280,2012-10-14 13:15:00
8:35 AM,51.8,35.6,54,30.12,10.0,West,13.8,21.9,N/A,,Clear,270,2012-10-14 13:35:00
8:55 AM,51.8,35.6,54,30.13,10.0,West,13.8,19.6,N/A,,Clear,280,2012-10-14 13:55:00
9:15 AM,53.6,35.6,51,30.13,10.0,WNW,15.0,24.2,N/A,,Clear,290,2012-10-14 14:15:00
9:35 AM,53.6,35.6,51,30.13,10.0,West,15.0,21.9,N/A,,Clear,280,2012-10-14 14:35:00
9:55 AM,55.4,35.6,47,30.13,10.0,WNW,11.5,23.0,N/A,,Scattered Clouds,290,2012-10-14 14:55:00
10:15 AM,55.4,35.6,47,30.12,10.0,WNW,15.0,23.0,N/A,,Scattered Clouds,290,2012-10-14 15:15:00
10:55 AM,57.2,35.6,44,30.13,10.0,West,16.1,21.9,N/A,,Clear,280,2012-10-14 15:55:00
11:15 AM,57.2,35.6,44,30.13,10.0,West,15.0,21.9,N/A,,Clear,280,2012-10-14 16:15:00
11:35 AM,59.0,35.6,42,30.12,10.0,NW,17.3,20.7,N/A,,Scattered Clouds,310,2012-10-14 16:35:00
12:35 PM,59.0,35.6,42,30.11,10.0,NW,18.4,26.5,N/A,,Clear,320,2012-10-14 17:35:00
12:55 PM,60.8,33.8,36,30.11,10.0,NW,19.6,29.9,N/A,,Clear,310,2012-10-14 17:55:00
1:15 PM,60.8,33.8,36,30.10,10.0,West,18.4,29.9,N/A,,Clear,280,2012-10-14 18:15:00
1:35 PM,60.8,33.8,36,30.09,10.0,West,19.6,27.6,N/A,,Clear,270,2012-10-14 18:35:00
1:55 PM,62.6,33.8,34,30.08,10.0,West,18.4,33.4,N/A,,Clear,270,2012-10-14 18:55:00
2:15 PM,62.6,32.0,32,30.08,10.0,NW,18.4,26.5,N/A,,Clear,310,2012-10-14 19:15:00
2:35 PM,64.4,32.0,30,30.07,10.0,West,17.3,27.6,N/A,,Clear,280,2012-10-14 19:35:00
2:55 PM,64.4,32.0,30,30.07,10.0,West,17.3,28.8,N/A,,Clear,280,2012-10-14 19:55:00
3:15 PM,64.4,32.0,30,30.06,10.0,NW,17.3,27.6,N/A,,Clear,320,2012-10-14 20:15:00
3:35 PM,64.4,32.0,30,30.06,10.0,NW,17.3,31.1,N/A,,Clear,310,2012-10-14 20:35:00
3:55 PM,64.4,32.0,30,30.05,10.0,NW,19.6,25.3,N/A,,Clear,310,2012-10-14 20:55:00
4:15 PM,64.4,32.0,30,30.06,10.0,NW,16.1,27.6,N/A,,Clear,310,2012-10-14 21:15:00
4:35 PM,64.4,32.0,30,30.05,10.0,West,19.6,25.3,N/A,,Clear,280,2012-10-14 21:35:00
4:55 PM,64.4,32.0,30,30.05,10.0,NW,17.3,28.8,N/A,,Clear,310,2012-10-14 21:55:00
5:15 PM,64.4,32.0,30,30.05,10.0,WNW,15.0,23.0,N/A,,Clear,300,2012-10-14 22:15:00
5:35 PM,64.4,32.0,30,30.05,10.0,West,13.8,18.4,N/A,,Clear,270,2012-10-14 22:35:00
5:55 PM,62.6,32.0,32,30.05,10.0,WNW,13.8,-,N/A,,Clear,300,2012-10-14 22:55:00
6:15 PM,62.6,32.0,32,30.05,10.0,WNW,9.2,19.6,N/A,,Clear,300,2012-10-14 23:15:00
6:35 PM,59.0,32.0,36,30.05,10.0,NW,6.9,-,N/A,,Clear,310,2012-10-14 23:35:00
6:55 PM,59.0,32.0,36,30.05,10.0,WNW,8.1,-,N/A,,Clear,290,2012-10-14 23:55:00
7:15 PM,57.2,32.0,38,30.05,10.0,WNW,5.8,-,N/A,,Clear,300,2012-10-15 00:15:00
7:35 PM,55.4,32.0,41,30.05,10.0,Calm,Calm,-,N/A,,Clear,0,2012-10-15 00:35:00
7:55 PM,55.4,32.0,41,30.05,10.0,Calm,Calm,-,N/A,,Clear,0,2012-10-15 00:55:00
8:15 PM,53.6,32.0,44,30.05,10.0,WSW,5.8,-,N/A,,Clear,240,2012-10-15 01:15:00
8:35 PM,50.0,32.0,50,30.05,10.0,SSW,3.5,-,N/A,,Clear,200,2012-10-15 01:35:00
8:55 PM,50.0,32.0,50,30.05,10.0,Calm,Calm,-,N/A,,Clear,0,2012-10-15 01:55:00
9:15 PM,51.8,32.0,47,30.05,10.0,WSW,3.5,-,N/A,,Clear,250,2012-10-15 02:15:00
9:35 PM,48.2,32.0,54,30.05,10.0,Calm,Calm,-,N/A,,Clear,0,2012-10-15 02:35:00
9:55 PM,50.0,32.0,50,30.04,10.0,Calm,Calm,-,N/A,,Clear,0,2012-10-15 02:55:00
10:15 PM,50.0,32.0,50,30.04,10.0,East,3.5,-,N/A,,Clear,90,2012-10-15 03:15:00
10:35 PM,51.8,32.0,47,30.03,10.0,Calm,Calm,-,N/A,,Clear,0,2012-10-15 03:35:00
10:55 PM,53.6,32.0,44,30.03,10.0,West,4.6,-,N/A,,Clear,260,2012-10-15 03:55:00
11:15 PM,50.0,32.0,50,30.02,10.0,WSW,4.6,-,N/A,,Clear,240,2012-10-15 04:15:00
11:35 PM,53.6,32.0,44,30.01,10.0,Calm,Calm,-,N/A,,Clear,0,2012-10-15 04:35:00
11:55 PM,50.0,32.0,50,30.00,10.0,Calm,Calm,-,N/A,,Clear,0,2012-10-15 04:55:00